Theta_e
336 333 335 335 337 336 336 334 333 327 321 320 321 323 325 331 335 338 338 338 335 332 326 316 316 316 315 329 328 330 317 317 318 333 335 330 320 322 326 324 317 318 326
335 332 333 333 335 335 336 335 334 332 326 324 325 325 327 326 328 331 328 327 324 319 315 320 314 312 312 313 320 317 314 314 315 324 330 327 319 322 327 332 327 327 323
332 331 332 333 334 336 336 336 335 334 332 329 329 326 326 321 319 318 317 317 316 317 324 316 314 313 312 312 312 313 313 312 313 312 318 323 321 328 330 332 327 323 320
332 332 332 333 336 336 337 336 335 335 334 333 331 330 328 327 322 321 322 324 330 336 327 321 318 318 319 317 314 312 312 312 314 312 318 320 327 334 334 327 320 321 319
333 331 332 333 335 336 335 335 335 335 334 333 334 333 331 330 327 325 323 326 332 334 331 326 322 318 322 321 321 318 314 312 314 314 327 331 333 336 334 322 324 320 320
333 332 329 329 331 334 335 334 333 334 333 331 331 332 333 332 330 328 326 331 332 331 328 328 326 321 318 325 325 324 325 321 313 316 318 331 336 339 332 328 318 320 321
328 330 331 330 329 328 328 328 328 327 327 328 329 330 332 333 332 331 329 327 327 329 327 328 329 325 317 321 327 327 324 325 316 315 315 317 331 336 337 322 319 321 323
325 322 318 318 318 320 323 326 327 328 328 329 329 329 329 330 331 332 331 331 331 327 326 327 329 326 319 314 321 327 325 325 319 317 317 317 317 319 326 322 323 324 326
326 324 323 321 319 318 316 313 314 319 325 328 329 330 330 330 329 329 331 331 331 330 328 328 329 327 321 314 313 322 325 325 323 323 332 330 325 322 326 319 326 330 330
326 322 322 321 318 319 315 311 311 311 312 317 324 328 329 331 332 331 329 329 329 331 329 330 329 329 323 317 314 314 321 325 324 324 329 333 334 333 328 320 330 332 330
322 319 318 317 317 317 314 312 311 311 311 310 310 311 318 325 328 329 331 329 329 330 331 331 330 330 329 320 319 314 314 319 322 323 329 332 332 335 334 331 335 332 330
320 318 317 317 316 316 315 314 313 312 312 311 311 311 310 310 312 324 328 330 330 330 331 331 332 331 330 324 320 316 312 313 314 316 323 329 332 334 335 334 332 329 329
318 317 317 317 317 317 316 315 314 314 313 313 312 311 312 312 310 309 317 327 330 330 330 331 332 332 330 329 319 321 315 312 312 312 313 323 332 333 332 328 328 329 328
318 317 316 317 317 317 317 317 316 315 314 313 313 312 312 313 313 313 312 318 327 329 330 330 331 332 332 330 328 317 322 318 313 311 312 316 329 333 330 326 328 329 328
312 313 313 313 314 315 316 317 317 316 316 314 313 312 313 314 314 314 315 316 317 329 329 330 329 329 331 331 331 329 317 321 322 316 313 312 319 331 332 330 331 332 328
310 311 311 312 313 313 315 316 317 317 316 315 313 311 313 314 315 315 315 315 321 321 327 330 331 331 329 329 330 330 330 322 319 324 319 314 313 326 330 330 329 328 327
308 309 311 311 312 313 313 315 317 317 317 316 313 312 313 313 313 313 313 314 315 319 324 326 329 328 330 331 331 331 330 329 328 318 322 320 320 327 328 327 325 325 324
307 308 309 310 312 312 313 314 316 317 316 315 314 314 314 313 312 311 311 312 313 315 317 325 326 326 326 328 329 330 330 330 329 329 322 321 322 320 325 327 328 328 326
302 304 305 307 309 311 313 314 315 315 315 316 315 315 315 314 313 312 310 309 309 312 315 317 318 322 324 323 324 328 330 331 331 330 329 326 321 324 322 323 324 326 327
294 296 299 302 305 307 309 311 314 315 316 316 316 316 315 314 314 313 312 310 309 309 310 313 315 315 315 315 316 317 319 328 330 330 331 329 329 324 327 327 325 325 327
293 293 293 295 297 301 305 307 309 311 313 315 316 316 316 315 314 313 312 311 310 310 314 315 316 316 316 316 317 314 312 314 324 328 329 330 330 329 328 328 328 327 326
290 291 291 291 292 292 293 296 298 305 308 307 309 311 313 315 315 315 314 313 312 312 313 317 319 318 316 315 315 314 315 313 311 315 321 328 329 329 329 329 328 327 328
289 289 289 290 290 290 291 292 293 298 300 304 308 309 310 311 312 313 313 314 313 313 315 317 319 319 318 315 315 314 316 316 313 313 312 312 313 313 324 329 329 328 328
288 288 288 289 289 289 289 290 290 290 291 293 295 300 302 305 308 311 311 312 313 313 316 316 319 320 319 317 315 314 315 316 317 318 317 317 317 317 318 323 326 329 329
287 288 288 288 288 288 288 288 289 289 289 290 291 293 295 299 304 307 310 311 312 311 314 313 314 317 319 317 316 315 314 316 319 317 317 314 317 319 320 319 321 324 329
287 287 287 287 287 288 288 288 288 288 288 289 289 289 291 292 295 301 304 308 311 311 312 314 314 314 316 317 316 316 315 314 314 314 317 316 313 311 315 316 317 320 321
Wind_Speed
6 8 10 10 7 6 6 6 6 6 7 8 9 10 10 10 10 10 9 8 6 4 3 4 5 5 7 8 9 8 8 10 12 14 13 12 12 15 15 16 15 14 14
5 7 9 9 7 6 7 7 7 6 6 7 8 9 9 9 8 7 5 4 2 2 5 6 7 8 9 8 7 6 8 10 11 11 10 11 12 14 15 16 15 16 15
7 8 9 8 7 6 7 7 5 5 5 5 5 6 6 6 6 5 5 5 5 6 8 8 8 9 9 9 8 7 8 9 10 11 11 11 13 13 15 14 14 13 12
7 7 8 7 6 6 6 5 3 3 3 3 3 4 4 4 5 5 5 6 8 6 7 6 7 7 8 8 9 8 8 9 10 11 13 14 14 13 15 13 13 13 12
7 7 7 6 6 5 4 4 3 2 2 1 1 2 2 2 3 4 4 5 5 4 3 4 5 5 6 8 8 8 8 7 8 11 13 12 12 14 14 15 14 12 11
8 6 5 4 3 2 2 2 3 3 3 3 3 3 3 3 2 2 3 3 2 3 1 2 3 3 4 6 7 7 6 5 7 9 13 12 11 15 17 13 12 12 13
8 6 5 3 2 1 1 2 3 4 4 5 5 5 5 5 4 4 3 2 2 3 3 3 4 2 2 5 6 5 4 3 6 8 11 12 12 11 14 10 12 13 13
8 6 6 5 4 2 2 3 5 6 6 7 7 7 7 7 6 6 6 5 5 4 4 4 5 3 4 6 7 6 4 4 6 8 8 8 9 11 10 9 13 13 11
3 3 4 5 5 6 7 8 8 7 8 8 8 9 9 9 9 9 9 8 8 6 6 5 6 6 5 7 8 9 7 5 5 8 6 6 8 8 10 11 13 12 12
1 1 0 3 5 8 9 8 9 10 10 10 10 11 11 11 11 11 11 10 10 9 8 8 7 7 6 7 7 9 10 8 7 9 7 6 6 9 15 11 14 10 10
5 4 4 5 7 12 10 9 7 7 8 9 10 12 13 14 14 13 12 12 11 11 10 10 9 8 8 8 8 8 10 11 10 11 8 6 4 4 17 17 15 10 10
7 7 8 8 9 10 9 10 10 9 9 9 10 11 12 13 15 16 15 14 13 13 13 13 12 11 10 9 9 9 9 11 11 12 12 11 6 5 13 14 13 11 9
7 9 12 13 12 11 12 13 12 13 12 11 11 12 12 12 13 15 17 16 16 15 15 15 14 15 12 10 10 10 10 11 12 13 13 12 8 8 10 11 10 9 7
11 12 14 16 17 15 14 13 13 14 14 14 15 14 13 13 12 13 13 16 17 16 16 16 16 15 15 13 12 12 13 11 11 13 14 14 11 10 12 12 11 10 9
9 11 13 13 15 16 15 14 13 12 12 14 16 15 15 14 13 13 12 13 16 17 17 17 17 17 16 15 15 14 14 15 14 12 14 16 15 14 14 14 13 10 9
9 8 8 9 12 15 15 15 14 13 13 14 13 14 15 15 15 15 14 14 14 15 17 18 18 17 18 18 17 17 16 16 17 17 14 16 17 16 15 14 13 12 11
16 13 9 6 8 10 12 14 15 15 14 14 13 13 14 15 17 17 17 16 15 17 17 20 20 21 21 20 20 19 19 19 20 20 20 18 19 18 18 17 15 14 14
15 16 14 12 8 7 9 9 13 15 16 13 12 12 13 14 16 18 18 17 17 18 18 19 19 21 22 22 22 22 22 22 23 23 23 23 23 23 23 22 19 18 16
22 20 19 16 14 10 7 7 8 9 11 12 12 12 12 13 14 17 18 19 19 20 20 21 23 24 26 26 25 25 25 26 25 26 25 26 25 24 25 25 25 23 19
25 25 24 22 20 18 14 9 6 7 9 10 11 12 14 15 14 14 16 19 19 21 22 22 23 24 26 26 26 27 28 26 26 27 27 28 28 28 27 24 23 23 23
24 26 28 27 28 25 22 21 15 14 11 10 8 8 11 13 17 17 16 15 18 21 21 21 23 23 25 24 24 26 27 27 28 26 27 28 28 29 30 30 27 26 27
27 27 28 29 30 30 28 25 23 22 20 20 19 17 14 14 16 17 18 18 17 20 23 23 24 25 26 24 24 22 20 22 27 29 31 30 27 27 29 30 31 31 29
27 29 30 31 31 31 31 29 25 22 21 22 22 24 23 21 18 22 22 22 23 21 23 25 26 26 27 24 24 20 8 12 11 19 25 29 32 32 30 27 30 30 31
26 27 28 29 30 31 32 32 33 32 30 28 29 29 30 29 27 23 28 28 29 27 24 26 28 29 29 28 27 27 27 22 9 6 11 15 18 24 29 31 29 29 33
24 26 28 29 31 32 32 33 33 32 33 34 32 31 30 29 31 30 27 29 30 29 26 27 31 32 32 33 31 29 28 27 24 22 18 23 16 15 14 14 18 28 29
25 27 30 32 32 33 33 33 34 35 35 36 36 37 35 33 30 32 33 30 30 31 31 26 30 36 36 34 34 32 31 30 29 28 25 23 26 27 24 24 24 22 22
Wind_Direction
146 159 162 164 167 163 157 141 123 109 106 113 112 112 113 115 116 117 123 128 130 112 55 48 60 86 113 112 111 110 93 104 132 137 129 120 113 114 110 110 120 130 124
157 152 159 160 165 173 171 153 139 115 107 110 112 117 116 122 126 128 125 135 139 103 97 83 77 89 106 122 132 117 110 113 123 146 150 133 123 125 121 120 111 114 122
143 147 147 151 160 166 166 161 145 131 116 114 116 118 116 114 121 124 121 119 113 104 103 94 87 91 96 105 110 111 115 118 122 133 148 149 139 139 131 127 119 116 117
140 141 141 142 147 151 160 170 159 159 145 130 133 127 122 116 117 116 114 111 110 108 103 99 91 95 98 98 99 105 114 119 122 126 133 139 145 145 141 136 125 117 111
131 133 137 142 148 152 159 166 183 191 195 197 207 194 171 147 137 128 124 117 116 145 117 111 101 96 107 108 106 101 99 113 128 137 146 137 142 148 141 136 128 118 112
112 117 120 128 149 184 199 207 222 231 233 235 234 238 233 229 201 169 151 142 152 170 195 157 144 109 125 132 126 114 106 106 134 145 157 148 141 149 144 136 133 121 112
83 96 98 109 128 168 259 269 266 266 263 262 255 249 247 239 225 223 217 223 225 223 222 213 192 175 190 178 163 140 123 106 149 152 164 168 165 138 154 143 141 132 128
71 69 68 58 55 38 333 287 274 265 260 258 260 260 254 251 245 241 236 240 252 255 232 225 215 226 245 214 201 187 166 136 146 149 160 177 184 186 177 166 155 145 137
106 76 45 22 360 346 328 311 294 279 268 263 260 259 257 257 254 250 247 246 251 251 244 226 226 230 245 242 219 208 201 184 171 166 162 177 200 205 190 171 169 158 150
172 186 243 330 331 329 319 302 290 282 280 271 265 262 259 256 257 257 257 253 248 243 245 240 234 234 235 244 239 225 215 207 194 192 194 193 200 219 203 192 179 167 150
203 214 250 285 305 324 319 312 301 289 282 281 278 273 269 265 261 258 255 254 249 246 242 244 242 240 234 240 241 231 226 221 213 202 220 221 257 284 193 195 183 180 174
235 247 264 271 281 296 302 306 303 298 292 290 288 281 276 272 266 260 257 254 250 245 239 238 238 239 236 236 238 237 230 228 225 218 213 235 256 190 171 166 181 184 186
276 266 262 265 266 269 287 296 298 298 298 297 295 290 286 283 275 267 257 257 256 254 248 243 239 237 237 240 240 237 235 231 229 227 226 227 238 211 189 192 198 206 204
275 282 276 267 263 261 267 274 288 297 302 304 299 294 288 287 283 275 270 256 255 255 255 252 247 245 240 237 240 238 233 232 231 230 231 229 227 222 206 199 213 227 239
290 289 288 285 274 267 264 263 264 268 281 295 301 295 289 287 285 281 276 270 257 257 256 252 251 250 245 241 240 241 240 235 233 232 231 233 235 223 218 215 219 229 231
6 343 313 295 280 275 266 260 256 258 269 285 285 285 288 288 285 282 281 275 266 259 256 256 251 249 249 248 246 244 244 241 239 237 236 233 233 234 231 231 232 234 246
27 15 346 323 301 279 272 267 258 255 267 282 278 276 278 280 284 283 280 277 275 267 261 253 253 257 253 251 250 250 248 243 241 239 237 234 231 231 233 237 243 246 244
25 22 13 8 345 307 287 269 261 260 266 266 264 270 277 279 280 282 283 279 274 270 267 260 254 254 255 258 256 252 250 250 246 243 241 237 235 236 237 240 242 247 252
33 27 19 11 2 354 330 299 271 259 258 257 259 260 264 269 280 282 281 283 279 273 270 268 262 258 258 258 259 257 255 252 249 246 244 242 239 237 237 239 245 243 250
39 35 29 21 13 5 356 339 305 270 250 256 260 264 266 267 266 273 280 283 282 275 269 268 271 268 264 263 261 259 254 249 250 247 245 242 241 241 242 241 244 246 248
33 28 24 21 18 11 2 353 331 334 319 306 288 282 273 273 274 274 277 282 283 278 273 267 266 265 265 264 266 264 262 250 245 246 246 246 245 244 244 244 246 253 247
25 22 18 16 13 10 8 6 359 342 330 326 315 304 295 281 278 278 280 276 276 275 269 265 266 267 264 260 260 264 267 266 254 247 245 244 244 246 246 245 245 243 248
20 17 13 9 5 2 358 353 349 334 321 307 296 295 297 303 298 287 283 285 279 272 271 265 262 263 265 260 253 245 244 244 251 249 246 247 246 245 245 245 242 240 243
14 10 7 4 360 355 351 347 345 341 334 328 322 314 311 307 301 297 289 287 285 274 273 267 262 259 261 259 254 245 239 244 243 262 251 243 243 242 242 243 244 243 240
5 2 358 355 351 348 345 340 336 331 327 322 316 309 304 300 296 289 284 279 280 279 274 272 264 259 256 255 250 250 246 242 241 245 261 252 243 237 238 246 254 248 242
356 352 349 346 344 340 336 332 328 324 320 317 314 311 305 299 292 288 285 278 270 272 269 270 267 261 254 251 250 246 245 243 241 239 239 250 254 254 246 253 254 253 249